[[{"header":{"parameterUnit":"m.s-1","parameterCategory":2,"la1":30.2991,"la2":30.254,"lo1":-89.0895,"lo2":-89.0444,"dy":0.0017,"dx":0.0017,"nx":28,"ny":28,"refTime":"2024-04-28T21:00:00:Z","depth":"0","parameterNumber":2,"parameterNumberName":"U-component_of_CURRENTS"},"data":[0,0,0,0,0,0,0,0,0,0,0,0,0,0,0,0,0,0,0,0,0,0,0,0,0,0,0,0,0,0,0,0,0,0,0,0,0,0,0,0,0,0,0,0,0,0,0,0,0,0,0,0,0,0,0,0,0,0,-0.2858,-0.2858,0,-0.2854,-0.2854,-0.2854,-0.2794,-0.2793,-0.2792,-0.2791,-0.2665,-0.2663,-0.2661,0,0,0,0,0,0,0,0,0,0,0,0,0,-0.2776,-0.2777,-0.2858,-0.2858,-0.2858,-0.2854,-0.2854,-0.2854,-0.2794,-0.2793,-0.2792,-0.279,-0.2666,-0.2663,-0.266,0,0,0,0,0,0,0,0,0,0,0,0,0,-0.2793,-0.2778,-0.2858,-0.2831,-0.2829,-0.2855,-0.2854,-0.2854,-0.2795,-0.2793,-0.2791,-0.2789,-0.2667,-0.2663,-0.266,-0.2676,0,0,-0.265,-0.2648,0,0,0,0,0,0,0,0,-0.2792,-0.2795,-0.2835,-0.2833,-0.283,-0.2826,-0.2779,-0.2789,-0.2795,-0.2804,-0.2791,-0.2789,-0.2711,-0.2704,-0.2704,-0.267,-0.2665,-0.265,-0.2648,-0.2646,-0.2645,0,0,0,0,0,0,0,-0.2791,-0.2795,-0.2853,-0.2835,-0.2833,-0.2806,-0.2807,-0.2781,-0.2763,-0.2803,-0.28,-0.2805,-0.2708,-0.2708,-0.2701,-0.2663,-0.265,-0.2647,-0.2645,-0.2643,-0.2616,-0.2617,0,0,0,0,0,0,-0.2802,-0.2795,-0.2853,-0.2853,-0.281,-0.281,-0.281,-0.2826,-0.2766,-0.2757,-0.2807,-0.2803,-0.2714,-0.2705,-0.2696,-0.2692,-0.2646,-0.2643,-0.2641,-0.2615,-0.2616,-0.2618,0,0,0,0,0,0,-0.2801,-0.2808,-0.2854,-0.2825,-0.283,-0.2814,-0.2832,-0.2827,-0.2819,-0.2771,-0.2758,-0.2802,-0.2712,-0.27,-0.2677,-0.2687,-0.2642,-0.2639,-0.2613,-0.2615,-0.2617,-0.2695,0,0,0,0,0,0,-0.2799,-0.2808,-0.2818,-0.2827,-0.2832,-0.2867,-0.2834,-0.2829,-0.2827,-0.2821,-0.2763,-0.275,-0.271,-0.2683,-0.2674,-0.2681,-0.2636,-0.2612,-0.2614,-0.2617,-0.2691,-0.27,-0.2707,0,0,0,0,0,-0.2796,-0.2815,-0.2819,-0.2826,-0.2849,-0.2868,-0.2868,-0.2847,-0.2829,-0.2831,-0.2797,-0.2751,-0.2691,-0.2682,-0.2671,-0.2677,-0.2611,-0.2614,-0.2616,-0.2688,-0.2698,-0.2707,0,0,0,0,0,0,-0.2776,-0.2812,-0.2816,-0.2843,-0.2857,-0.2859,-0.286,-0.2854,-0.2832,-0.2819,-0.2768,-0.2754,-0.2738,-0.2704,-0.2695,-0.2679,-0.2643,-0.2644,-0.2701,-0.271,-0.2718,-0.2707,-0.2633,0,0,0,0,0,-0.2784,-0.2808,-0.2835,-0.2854,-0.2866,-0.2866,-0.287,-0.2862,-0.285,-0.2838,-0.2804,-0.2768,-0.2746,-0.2725,-0.2699,-0.269,-0.266,-0.2689,-0.2697,-0.2703,-0.2689,-0.2669,-0.2673,-0.2627,-0.2627,-0.2627,0,0,-0.2778,-0.2803,-0.2814,-0.2852,-0.2858,-0.2881,-0.2862,-0.2873,-0.2881,-0.2828,-0.2818,-0.2794,-0.2752,-0.2744,-0.2733,-0.2712,-0.2707,-0.2707,-0.2713,-0.2695,-0.2672,-0.2676,-0.268,-0.2629,-0.2629,-0.2628,0,0,-0.2781,-0.2807,-0.2829,-0.2852,-0.2877,-0.2885,-0.2893,-0.2904,-0.2895,-0.2899,-0.2863,-0.2845,-0.2813,-0.2785,-0.2767,-0.2804,-0.2754,-0.28,-0.2823,-0.2805,-0.2808,-0.281,-0.2804,-0.2805,-0.28,-0.28,-0.28,0,-0.277,-0.281,-0.2834,-0.2865,-0.2883,-0.2892,-0.2915,-0.292,-0.2918,-0.2915,-0.29,-0.2866,-0.283,-0.2816,-0.2828,-0.2818,-0.2805,-0.2791,-0.2814,-0.2815,-0.2816,-0.2809,-0.2809,-0.2804,-0.2804,-0.2803,-0.2803,0,-0.2792,-0.2827,-0.2842,-0.2889,-0.291,-0.2933,-0.2956,-0.2966,-0.2962,-0.2962,-0.2954,-0.292,-0.2893,-0.2891,-0.2866,-0.2861,-0.2851,-0.2831,-0.2788,-0.2825,-0.2816,-0.2814,-0.281,-0.2808,-0.2807,-0.2806,0,0,-0.2756,-0.2842,-0.2845,-0.2872,-0.2927,-0.2942,-0.2973,-0.2997,-0.3006,-0.3002,-0.3003,-0.2979,-0.2959,-0.2938,-0.2911,-0.2893,-0.2899,-0.2867,-0.2864,-0.2858,-0.287,-0.2858,-0.2854,-0.2886,-0.2885,-0.2885,-0.2871,0,-0.2762,-0.2821,-0.2865,-0.291,-0.2941,-0.2976,-0.3004,-0.3025,-0.3034,-0.3038,-0.3013,-0.3001,-0.2979,-0.2965,-0.2949,-0.2907,-0.2895,-0.2905,-0.2836,-0.2834,-0.2815,-0.2851,-0.2782,-0.2762,-0.2869,-0.2868,-0.2868,0,-0.2759,-0.2806,-0.2853,-0.2927,-0.2944,-0.2969,-0.301,-0.3038,-0.3058,-0.3064,-0.3057,-0.3039,-0.3016,-0.2988,-0.294,-0.2951,-0.2914,-0.2883,-0.2882,-0.2833,-0.2817,-0.2736,-0.2754,-0.2758,-0.2865,-0.2865,-0.2866,0,-0.2702,-0.279,-0.2825,-0.2851,-0.2937,-0.2955,-0.2992,-0.3031,-0.3056,-0.3069,-0.3084,-0.306,-0.3045,-0.2998,-0.2951,-0.2942,-0.2899,-0.2877,-0.2833,-0.2833,-0.2737,-0.2729,-0.2739,-0.2837,-0.2837,-0.2837,-0.2837,0,-0.2685,-0.2709,-0.2799,-0.2817,-0.285,-0.2923,-0.295,-0.2987,-0.304,-0.3064,-0.3083,-0.3086,-0.3045,-0.3023,-0.2966,-0.2906,-0.2913,-0.2837,-0.2825,-0.2767,-0.2762,-0.2729,-0.2723,-0.2836,-0.2836,-0.2836,-0.2837,0,-0.2602,-0.2672,-0.2705,-0.2795,-0.282,-0.2832,-0.2922,-0.2953,-0.3018,-0.3048,-0.3055,-0.3102,-0.3071,-0.304,-0.2968,-0.2929,-0.2824,-0.284,-0.2787,-0.2769,-0.272,-0.272,-0.2652,-0.2583,-0.2781,-0.2781,-0.278,0,-0.2565,-0.2577,-0.2655,-0.2677,-0.2711,-0.2758,-0.28,-0.2902,-0.2942,-0.3046,-0.3053,-0.3073,-0.3062,-0.2995,-0.2917,-0.2837,-0.2794,-0.2737,-0.2697,-0.2712,-0.2703,-0.2683,-0.2628,-0.2612,-0.261,-0.2609,-0.2608,0,-0.2475,-0.2495,-0.2527,-0.2574,-0.2616,-0.2666,-0.2734,-0.2769,-0.2893,-0.2943,-0.3006,-0.302,-0.3001,-0.2914,-0.2842,-0.2759,-0.2685,-0.2705,-0.272,-0.2571,-0.2546,-0.2476,-0.2648,-0.2595,-0.2596,-0.2597,-0.2598,-0.2598,-0.2381,-0.2374,-0.2416,-0.2448,-0.2503,-0.2543,-0.2528,-0.2636,-0.2688,-0.2734,-0.2861,-0.286,-0.2893,-0.2781,-0.2731,-0.2623,-0.2589,-0.2539,-0.254,-0.2521,-0.2445,-0.2606,-0.2543,-0.2543,-0.2544,-0.2545,-0.2546,0,-0.2255,-0.2266,-0.2295,-0.2318,-0.232,-0.2396,-0.2455,-0.2416,-0.2422,-0.2546,-0.2584,-0.2675,-0.2632,-0.2648,-0.2593,-0.2503,-0.2418,-0.2425,-0.2376,-0.2325,-0.2465,-0.245,-0.2365,-0.2365,-0.2365,-0.2365,-0.2365,-0.2365,-0.2184,-0.2156,-0.2175,-0.2119,-0.2135,-0.2065,-0.2057,-0.2038,-0.2075,-0.2105,-0.2198,-0.2297,-0.2389,-0.262,-0.2555,-0.2448,-0.2363,-0.2288,-0.2283,-0.2405,-0.2416,-0.2427,-0.2414,-0.2322,-0.2322,-0.2084,-0.2083,-0.2081]},{"header":{"parameterUnit":"m.s-1","parameterCategory":2,"la1":30.2991,"la2":30.254,"lo1":-89.0895,"lo2":-89.0444,"dy":0.0017,"dx":0.0017,"nx":28,"ny":28,"refTime":"2024-04-28T21:00:00:Z","depth":"0","parameterNumber":3,"parameterNumberName":"V-component_of_CURRENTS"},"data":[0,0,0,0,0,0,0,0,0,0,0,0,0,0,0,0,0,0,0,0,0,0,0,0,0,0,0,0,0,0,0,0,0,0,0,0,0,0,0,0,0,0,0,0,0,0,0,0,0,0,0,0,0,0,0,0,0,0,-0.0224,-0.0223,0,-0.012,-0.0119,-0.0118,-0.0063,-0.0063,-0.0063,-0.0063,0.0043,0.0045,0.0048,0,0,0,0,0,0,0,0,0,0,0,0,0,-0.0318,-0.0317,-0.0224,-0.0223,-0.0222,-0.012,-0.0119,-0.0117,-0.0063,-0.0063,-0.0063,-0.0063,0.0042,0.0045,0.0048,0,0,0,0,0,0,0,0,0,0,0,0,0,-0.0252,-0.0317,-0.0225,-0.0183,-0.0178,-0.0121,-0.0119,-0.0117,-0.0063,-0.0063,-0.0063,-0.0063,0.0041,0.0045,0.0049,0.0073,0,0,0.0061,0.0063,0,0,0,0,0,0,0,0,-0.0256,-0.0249,-0.019,-0.0186,-0.018,-0.0105,-0.0113,-0.0053,-0.0063,-0.0106,-0.0063,-0.0063,-0.0007,0.0001,0.0021,0.0078,0.0082,0.0062,0.0064,0.0066,0.0067,0,0,0,0,0,0,0,-0.0261,-0.0252,-0.0183,-0.0189,-0.0183,-0.0149,-0.014,-0.0101,-0.0058,-0.0103,-0.0098,-0.0087,-0.0004,0.0017,0.0024,0.0084,0.0062,0.0065,0.0068,0.007,0.0198,0.0199,0,0,0,0,0,0,-0.0277,-0.0257,-0.0186,-0.018,-0.0219,-0.0148,-0.0138,-0.0129,-0.0058,-0.0048,-0.0088,-0.0085,0.001,0.0019,0.0028,0.0077,0.0066,0.007,0.0072,0.0197,0.0198,0.0199,0,0,0,0,0,0,-0.028,-0.0272,-0.019,-0.0216,-0.0203,-0.0147,-0.0137,-0.0127,-0.0107,-0.0047,-0.0036,-0.0078,0.001,0.0022,0.0074,0.0081,0.0072,0.0076,0.0196,0.0197,0.0198,0.0164,0,0,0,0,0,0,-0.0283,-0.0274,-0.0277,-0.0217,-0.0203,-0.0162,-0.0137,-0.0125,-0.01,-0.0096,-0.0035,-0.0025,0.0011,0.0067,0.0078,0.0086,0.0079,0.0195,0.0196,0.0198,0.0164,0.0165,0.0165,0,0,0,0,0,-0.0287,-0.0293,-0.0278,-0.0269,-0.0208,-0.0162,-0.0151,-0.011,-0.01,-0.0092,-0.0042,-0.0027,0.0085,0.0071,0.0084,0.0093,0.0194,0.0196,0.0198,0.0164,0.0165,0.0165,0,0,0,0,0,0,-0.0341,-0.0286,-0.0268,-0.026,-0.0216,-0.0153,-0.0145,-0.0115,-0.0069,-0.0069,-0.0013,0.0001,0.0049,0.0078,0.0061,0.0137,0.0141,0.0145,0.0111,0.0112,0.0112,0.0094,0.0082,0,0,0,0,0,-0.0353,-0.0343,-0.0284,-0.0279,-0.0261,-0.0205,-0.0183,-0.0153,-0.0103,-0.0084,-0.0036,0.0015,0.0068,0.0093,0.014,0.018,0.0215,0.0195,0.0195,0.0195,0.019,0.0255,0.026,0.0206,0.0206,0.0206,0,0,-0.0376,-0.0344,-0.034,-0.029,-0.0256,-0.0231,-0.0192,-0.0164,-0.0138,-0.008,-0.0036,0.0015,0.0079,0.0129,0.0152,0.0153,0.023,0.0197,0.0196,0.0191,0.0258,0.0263,0.0268,0.0207,0.0207,0.0207,0,0,-0.0418,-0.0386,-0.0392,-0.0353,-0.0304,-0.026,-0.0255,-0.019,-0.0157,-0.0106,-0.0054,0.0004,0.0074,0.013,0.0165,0.0193,0.0228,0.0205,0.0191,0.0255,0.026,0.0264,0.0316,0.0325,0.0205,0.0205,0.0205,0,-0.045,-0.0442,-0.0387,-0.0375,-0.0348,-0.0278,-0.027,-0.0221,-0.0146,-0.0113,-0.0101,0.0029,0.0076,0.0155,0.0166,0.0192,0.0229,0.0182,0.0254,0.0259,0.0264,0.0316,0.0327,0.0203,0.0204,0.0204,0.0204,0,-0.0483,-0.0477,-0.0475,-0.0433,-0.0395,-0.0377,-0.0299,-0.0259,-0.0212,-0.0154,-0.0072,0.0008,0.0084,0.0113,0.0147,0.0215,0.0229,0.0244,0.0247,0.0267,0.0321,0.0333,0.0201,0.0202,0.0202,0.0203,0,0,-0.056,-0.0512,-0.0513,-0.0502,-0.0423,-0.0396,-0.0345,-0.0273,-0.0236,-0.0154,-0.0098,0.0002,0.0051,0.0094,0.0155,0.0212,0.0282,0.0236,0.024,0.0276,0.0417,0.0478,0.0497,0.0308,0.031,0.0311,0.044,0,-0.0608,-0.0616,-0.0561,-0.0552,-0.0547,-0.0453,-0.041,-0.033,-0.0251,-0.0177,-0.0073,-0.0001,0.0044,0.0081,0.0149,0.0253,0.0311,0.0245,0.0402,0.0407,0.045,0.0513,0.0578,0.0703,0.0452,0.0454,0.0455,0,-0.0659,-0.0655,-0.0668,-0.0614,-0.0599,-0.0573,-0.0481,-0.0431,-0.03,-0.0238,-0.0137,-0.0048,0.0067,0.0089,0.0273,0.0228,0.0313,0.0388,0.0395,0.047,0.0491,0.0645,0.0735,0.0916,0.0474,0.0472,0.0471,0,-0.075,-0.0725,-0.074,-0.072,-0.0647,-0.0624,-0.0578,-0.046,-0.0411,-0.0277,-0.0223,-0.007,0.0011,0.014,0.0309,0.029,0.0506,0.0501,0.0636,0.0641,0.0738,0.0748,0.1013,0.0617,0.0617,0.0617,0.0616,0,-0.0821,-0.0829,-0.0789,-0.0792,-0.08,-0.0709,-0.0682,-0.0607,-0.0493,-0.0428,-0.0272,-0.0178,0.0027,0.0185,0.0312,0.0529,0.0515,0.0651,0.069,0.0729,0.0737,0.093,0.0976,0.0621,0.062,0.0619,0.0619,0,-0.0916,-0.0892,-0.0907,-0.0857,-0.0848,-0.0853,-0.0776,-0.0744,-0.0622,-0.053,-0.0489,-0.025,-0.0022,0.0187,0.0425,0.0544,0.0844,0.0798,0.0828,0.0868,0.1152,0.1192,0.1441,0.1531,0.097,0.0973,0.0975,0,-0.0964,-0.0987,-0.0977,-0.1002,-0.0985,-0.0975,-0.0963,-0.084,-0.0788,-0.0565,-0.0523,-0.0266,-0.0054,0.0337,0.061,0.0879,0.0969,0.1062,0.1041,0.1205,0.1277,0.1284,0.1339,0.1156,0.116,0.1163,0.1165,0,-0.105,-0.1048,-0.1062,-0.1126,-0.1136,-0.1128,-0.109,-0.1061,-0.0889,-0.0767,-0.0541,-0.0345,0.0093,0.0491,0.0852,0.0993,0.1202,0.1126,0.1306,0.1462,0.1479,0.157,0.1018,0.1189,0.1187,0.1185,0.1184,0.1183,-0.1109,-0.1153,-0.1185,-0.124,-0.126,-0.1256,-0.1241,-0.1157,-0.1047,-0.0792,-0.0578,-0.0208,0.0387,0.0946,0.1117,0.1524,0.1426,0.1622,0.166,0.1654,0.1744,0.124,0.1444,0.1443,0.1442,0.1442,0.1441,0,-0.118,-0.1226,-0.1294,-0.1344,-0.1384,-0.1361,-0.1302,-0.1231,-0.1099,-0.078,-0.0503,0.024,0.0797,0.1291,0.1873,0.206,0.207,0.2137,0.218,0.2213,0.1803,0.1816,0.2099,0.2099,0.2099,0.2099,0.2099,0.2098,-0.122,-0.1309,-0.1347,-0.144,-0.1467,-0.1467,-0.1427,-0.1271,-0.1035,-0.0512,-0.0042,0.0352,0.1075,0.2041,0.2546,0.2556,0.2699,0.2669,0.2735,0.2476,0.2431,0.2388,0.2418,0.2822,0.2823,0.3144,0.3148,0.315]}],[{"header":{"parameterUnit":"m.s-1","parameterCategory":2,"la1":30.2991,"la2":30.254,"lo1":-89.0895,"lo2":-89.0444,"dy":0.0017,"dx":0.0017,"nx":28,"ny":28,"refTime":"2024-04-28T21:00:00:Z","depth":"2","parameterNumber":2,"parameterNumberName":"U-component_of_CURRENTS"},"data":[0,0,0,0,0,0,0,0,0,0,0,0,0,0,0,0,0,0,0,0,0,0,0,0,0,0,0,0,0,0,0,0,0,0,0,0,0,0,0,0,0,0,0,0,0,0,0,0,0,0,0,0,0,0,0,0,0,0,-0.2731,-0.2732,0,-0.2732,-0.2731,-0.2731,-0.2679,-0.2677,-0.2676,-0.2675,-0.2558,-0.2556,-0.2554,0,0,0,0,0,0,0,0,0,0,0,0,0,-0.265,-0.2652,-0.2731,-0.2732,-0.2732,-0.2732,-0.2731,-0.2731,-0.2679,-0.2677,-0.2676,-0.2675,-0.2558,-0.2556,-0.2553,0,0,0,0,0,0,0,0,0,0,0,0,0,-0.2668,-0.2652,-0.2731,-0.2708,-0.2707,-0.2732,-0.2731,-0.2731,-0.2679,-0.2677,-0.2676,-0.2674,-0.2559,-0.2556,-0.2553,-0.2566,0,0,-0.2543,-0.2542,0,0,0,0,0,0,0,0,-0.2667,-0.2671,-0.2711,-0.271,-0.2708,-0.2706,-0.266,-0.2671,-0.2679,-0.2686,-0.2675,-0.2673,-0.26,-0.2593,-0.2594,-0.256,-0.2555,-0.2543,-0.2541,-0.254,-0.2539,0,0,0,0,0,0,0,-0.2666,-0.267,-0.2728,-0.2712,-0.271,-0.2686,-0.2687,-0.2662,-0.2647,-0.2685,-0.2682,-0.2688,-0.2597,-0.2597,-0.259,-0.2553,-0.2543,-0.254,-0.2538,-0.2537,-0.2511,-0.2512,0,0,0,0,0,0,-0.2677,-0.267,-0.2728,-0.2728,-0.2687,-0.2689,-0.269,-0.2706,-0.265,-0.2642,-0.269,-0.2686,-0.2603,-0.2594,-0.2586,-0.2585,-0.254,-0.2537,-0.2535,-0.251,-0.2511,-0.2513,0,0,0,0,0,0,-0.2676,-0.2683,-0.2728,-0.2701,-0.2705,-0.2693,-0.2711,-0.2707,-0.2701,-0.2655,-0.2644,-0.2688,-0.2602,-0.259,-0.257,-0.258,-0.2535,-0.2532,-0.2508,-0.251,-0.2512,-0.2591,0,0,0,0,0,0,-0.2673,-0.2683,-0.2693,-0.2702,-0.2707,-0.2743,-0.2713,-0.2708,-0.2709,-0.2704,-0.265,-0.2638,-0.26,-0.2575,-0.2567,-0.2575,-0.253,-0.2507,-0.2509,-0.2511,-0.2587,-0.2595,-0.2603,0,0,0,0,0,-0.2671,-0.2689,-0.2694,-0.2701,-0.2725,-0.2744,-0.2744,-0.2726,-0.2711,-0.2714,-0.2683,-0.2639,-0.2583,-0.2574,-0.2563,-0.2571,-0.2506,-0.2509,-0.2511,-0.2583,-0.2594,-0.2602,0,0,0,0,0,0,-0.2651,-0.2687,-0.2691,-0.2718,-0.2732,-0.2736,-0.2738,-0.2734,-0.2715,-0.2704,-0.2656,-0.2643,-0.2629,-0.2596,-0.2586,-0.2573,-0.2537,-0.2538,-0.2596,-0.2605,-0.2612,-0.2602,-0.2527,0,0,0,0,0,-0.2659,-0.2683,-0.271,-0.2728,-0.274,-0.2743,-0.2747,-0.2742,-0.2732,-0.2722,-0.269,-0.2657,-0.2636,-0.2616,-0.2591,-0.2584,-0.2554,-0.2583,-0.2591,-0.2598,-0.2584,-0.2564,-0.2568,-0.2522,-0.2522,-0.2522,0,0,-0.2653,-0.2678,-0.2688,-0.2726,-0.2734,-0.2757,-0.274,-0.2753,-0.2762,-0.2712,-0.2705,-0.2683,-0.2643,-0.2636,-0.2626,-0.2605,-0.2602,-0.2602,-0.2608,-0.2589,-0.2567,-0.2571,-0.2575,-0.2524,-0.2523,-0.2523,0,0,-0.2656,-0.2682,-0.2703,-0.2727,-0.2754,-0.2763,-0.2771,-0.2784,-0.2777,-0.2783,-0.275,-0.2734,-0.2704,-0.2677,-0.266,-0.2697,-0.2648,-0.2694,-0.2717,-0.2699,-0.2702,-0.2705,-0.2699,-0.27,-0.2694,-0.2694,-0.2694,0,-0.2646,-0.2685,-0.2709,-0.274,-0.2758,-0.2769,-0.2793,-0.2799,-0.28,-0.2799,-0.2786,-0.2755,-0.2721,-0.2708,-0.2721,-0.2711,-0.2698,-0.2685,-0.2709,-0.271,-0.2711,-0.2704,-0.2704,-0.2698,-0.2698,-0.2697,-0.2697,0,-0.2667,-0.2701,-0.2717,-0.2763,-0.2785,-0.2809,-0.2833,-0.2845,-0.2845,-0.2846,-0.2841,-0.2809,-0.2784,-0.2783,-0.2759,-0.2756,-0.2746,-0.2725,-0.2683,-0.272,-0.2711,-0.271,-0.2704,-0.2702,-0.2701,-0.27,0,0,-0.2631,-0.2716,-0.272,-0.2747,-0.2803,-0.2819,-0.285,-0.2875,-0.2886,-0.2886,-0.2889,-0.2867,-0.2851,-0.283,-0.2805,-0.2787,-0.2795,-0.2762,-0.276,-0.2754,-0.2767,-0.2753,-0.275,-0.2782,-0.2782,-0.2781,-0.2768,0,-0.2637,-0.2696,-0.274,-0.2785,-0.2816,-0.2853,-0.2881,-0.2904,-0.2915,-0.2921,-0.2898,-0.289,-0.2869,-0.2859,-0.2843,-0.2802,-0.2791,-0.2801,-0.2733,-0.273,-0.271,-0.2747,-0.251,-0.2476,-0.2766,-0.2766,-0.2765,0,-0.2634,-0.268,-0.2729,-0.2803,-0.2819,-0.2845,-0.2889,-0.2918,-0.294,-0.2948,-0.2944,-0.2928,-0.2908,-0.2881,-0.2836,-0.2847,-0.2811,-0.2781,-0.2779,-0.2728,-0.2712,-0.248,-0.2462,-0.2762,-0.2763,-0.2763,-0.2763,0,-0.258,-0.2666,-0.2703,-0.2729,-0.2814,-0.2834,-0.2872,-0.2913,-0.2939,-0.2955,-0.2972,-0.295,-0.2938,-0.2892,-0.2848,-0.2839,-0.2798,-0.2775,-0.273,-0.273,-0.2492,-0.2471,-0.2736,-0.2736,-0.2736,-0.2736,-0.2736,0,-0.2563,-0.2588,-0.2679,-0.2697,-0.2732,-0.2804,-0.2834,-0.2872,-0.2927,-0.295,-0.2972,-0.2976,-0.2939,-0.2918,-0.2863,-0.2803,-0.2812,-0.2734,-0.2722,-0.2518,-0.2501,-0.271,-0.2707,-0.2735,-0.2735,-0.2735,-0.2736,0,-0.2484,-0.2553,-0.2588,-0.2678,-0.2703,-0.2718,-0.2808,-0.2839,-0.2906,-0.2937,-0.2946,-0.2993,-0.2964,-0.2935,-0.2865,-0.2826,-0.2763,-0.2738,-0.2518,-0.248,-0.2703,-0.2705,-0.2678,-0.2677,-0.2677,-0.2676,-0.2676,0,-0.2447,-0.2461,-0.254,-0.2563,-0.2599,-0.2647,-0.269,-0.2792,-0.2831,-0.2935,-0.2941,-0.2963,-0.2948,-0.2883,-0.2772,-0.2684,-0.2743,-0.2459,-0.2395,-0.2705,-0.2695,-0.2698,-0.27,-0.2114,-0.2109,-0.2104,-0.2101,0,-0.236,-0.2383,-0.2416,-0.2464,-0.2508,-0.2556,-0.2625,-0.2659,-0.2781,-0.2826,-0.2887,-0.2897,-0.2847,-0.2655,-0.2572,-0.2477,-0.2455,-0.2378,-0.2722,-0.2191,-0.2178,-0.2168,-0.2187,-0.2065,-0.2068,-0.2071,-0.2073,-0.2075,-0.227,-0.2264,-0.2309,-0.2342,-0.2398,-0.2435,-0.242,-0.2504,-0.2547,-0.2542,-0.2694,-0.2598,-0.2589,-0.2309,-0.2219,-0.2115,-0.2265,-0.2147,-0.2155,-0.2169,-0.2133,-0.2122,-0.1991,-0.1994,-0.1997,-0.2,-0.2002,0,-0.2139,-0.216,-0.219,-0.2215,-0.2205,-0.2293,-0.2348,-0.2265,-0.2234,-0.2275,-0.2268,-0.2019,-0.1945,-0.1927,-0.1724,-0.1736,-0.1668,-0.1662,-0.1559,-0.1595,-0.1628,-0.1561,-0.1269,-0.1267,-0.1266,-0.1264,0,0,-0.2067,-0.2037,-0.2055,-0.1995,-0.2022,-0.1925,-0.1914,-0.1813,-0.1765,-0.1624,-0.1563,-0.1717,-0.1826,-0.1515,-0.1483,-0.1346,-0.1438,-0.1269,-0.1847,-0.1755,-0.1784,-0.1894,-0.1832,0,0,0,0,0]},{"header":{"parameterUnit":"m.s-1","parameterCategory":2,"la1":30.2991,"la2":30.254,"lo1":-89.0895,"lo2":-89.0444,"dy":0.0017,"dx":0.0017,"nx":28,"ny":28,"refTime":"2024-04-28T21:00:00:Z","depth":"2","parameterNumber":3,"parameterNumberName":"V-component_of_CURRENTS"},"data":[0,0,0,0,0,0,0,0,0,0,0,0,0,0,0,0,0,0,0,0,0,0,0,0,0,0,0,0,0,0,0,0,0,0,0,0,0,0,0,0,0,0,0,0,0,0,0,0,0,0,0,0,0,0,0,0,0,0,-0.0258,-0.0257,0,-0.0156,-0.0154,-0.0153,-0.0098,-0.0098,-0.0098,-0.0098,0.0006,0.0009,0.0012,0,0,0,0,0,0,0,0,0,0,0,0,0,-0.0348,-0.0347,-0.0258,-0.0257,-0.0256,-0.0156,-0.0154,-0.0153,-0.0098,-0.0098,-0.0098,-0.0098,0.0005,0.0009,0.0012,0,0,0,0,0,0,0,0,0,0,0,0,0,-0.0283,-0.0346,-0.0258,-0.0217,-0.0212,-0.0156,-0.0154,-0.0153,-0.0098,-0.0098,-0.0098,-0.0098,0.0004,0.0008,0.0012,0.0035,0,0,0.0025,0.0026,0,0,0,0,0,0,0,0,-0.0287,-0.028,-0.0224,-0.0219,-0.0214,-0.014,-0.0148,-0.009,-0.0098,-0.0141,-0.0098,-0.0098,-0.0043,-0.0035,-0.0015,0.0039,0.0044,0.0025,0.0027,0.0029,0.003,0,0,0,0,0,0,0,-0.0292,-0.0284,-0.0217,-0.0223,-0.0217,-0.0183,-0.0174,-0.0136,-0.0094,-0.0137,-0.0133,-0.0122,-0.004,-0.0019,-0.0013,0.0045,0.0025,0.0028,0.0031,0.0032,0.0157,0.0158,0,0,0,0,0,0,-0.0308,-0.0288,-0.022,-0.0214,-0.0251,-0.0182,-0.0172,-0.0163,-0.0094,-0.0083,-0.0122,-0.012,-0.0026,-0.0017,-0.0009,0.004,0.0029,0.0033,0.0035,0.0156,0.0158,0.0159,0,0,0,0,0,0,-0.0311,-0.0303,-0.0225,-0.0249,-0.0237,-0.0181,-0.0172,-0.0162,-0.0142,-0.0083,-0.0072,-0.0113,-0.0026,-0.0014,0.0036,0.0043,0.0035,0.0038,0.0155,0.0157,0.0158,0.0125,0,0,0,0,0,0,-0.0314,-0.0305,-0.0308,-0.025,-0.0236,-0.0197,-0.0171,-0.016,-0.0135,-0.0131,-0.0071,-0.0061,-0.0025,0.003,0.004,0.0049,0.0042,0.0154,0.0156,0.0158,0.0125,0.0125,0.0125,0,0,0,0,0,-0.0317,-0.0325,-0.0309,-0.0301,-0.0242,-0.0197,-0.0187,-0.0146,-0.0135,-0.0127,-0.0077,-0.0063,0.0048,0.0034,0.0046,0.0056,0.0153,0.0156,0.0158,0.0125,0.0125,0.0125,0,0,0,0,0,0,-0.0371,-0.0318,-0.03,-0.0293,-0.025,-0.0188,-0.0181,-0.0151,-0.0105,-0.0104,-0.0049,-0.0035,0.0012,0.004,0.0024,0.0098,0.0102,0.0106,0.0073,0.0074,0.0074,0.0056,0.0045,0,0,0,0,0,-0.0384,-0.0375,-0.0316,-0.0313,-0.0294,-0.0239,-0.0218,-0.0188,-0.0139,-0.0119,-0.0072,-0.0021,0.003,0.0055,0.0101,0.014,0.0174,0.0155,0.0155,0.0154,0.015,0.0215,0.022,0.0165,0.0165,0.0165,0,0,-0.0407,-0.0376,-0.0372,-0.0323,-0.029,-0.0265,-0.0226,-0.0199,-0.0173,-0.0116,-0.0072,-0.0021,0.0041,0.009,0.0113,0.0114,0.0189,0.0157,0.0156,0.0151,0.0217,0.0222,0.0227,0.0167,0.0166,0.0166,0,0,-0.0449,-0.0418,-0.0424,-0.0386,-0.0337,-0.0294,-0.0289,-0.0225,-0.0192,-0.0142,-0.009,-0.0033,0.0036,0.0091,0.0126,0.0153,0.0187,0.0164,0.0151,0.0214,0.0219,0.0223,0.0274,0.0283,0.0164,0.0164,0.0164,0,-0.0481,-0.0474,-0.042,-0.0407,-0.0381,-0.0312,-0.0304,-0.0256,-0.0182,-0.0149,-0.0137,-0.0009,0.0038,0.0116,0.0127,0.0152,0.0188,0.0142,0.0213,0.0218,0.0223,0.0274,0.0285,0.0163,0.0163,0.0163,0.0163,0,-0.0514,-0.0508,-0.0507,-0.0465,-0.0428,-0.0411,-0.0333,-0.0294,-0.0247,-0.019,-0.0109,-0.0029,0.0046,0.0074,0.0108,0.0174,0.0188,0.0203,0.0207,0.0226,0.028,0.0291,0.0161,0.0162,0.0162,0.0162,0,0,-0.0592,-0.0544,-0.0544,-0.0533,-0.0456,-0.0429,-0.0379,-0.0308,-0.0271,-0.019,-0.0135,-0.0036,0.0013,0.0055,0.0115,0.0172,0.0241,0.0196,0.02,0.0236,0.0375,0.0431,0.045,0.0267,0.0269,0.0271,0.0397,0,-0.0638,-0.0646,-0.0592,-0.0583,-0.0578,-0.0485,-0.0443,-0.0364,-0.0287,-0.0213,-0.011,-0.0039,0.0006,0.0043,0.011,0.0213,0.027,0.0205,0.036,0.0364,0.0404,0.0465,0.0376,0.0485,0.0409,0.0411,0.0412,0,-0.0689,-0.0685,-0.0697,-0.0643,-0.0629,-0.0603,-0.0512,-0.0463,-0.0335,-0.0273,-0.0173,-0.0085,0.0029,0.0051,0.0232,0.0189,0.0272,0.0346,0.0353,0.0424,0.0443,0.0455,0.051,0.0432,0.043,0.0429,0.0428,0,-0.0777,-0.0753,-0.0767,-0.0747,-0.0675,-0.0653,-0.0608,-0.0492,-0.0444,-0.0311,-0.0258,-0.0107,-0.0026,0.0102,0.0268,0.025,0.0462,0.0458,0.0588,0.0592,0.0557,0.0555,0.0573,0.0573,0.0573,0.0572,0.0572,0,-0.0847,-0.0855,-0.0814,-0.0818,-0.0825,-0.0736,-0.0709,-0.0635,-0.0523,-0.046,-0.0305,-0.0213,-0.001,0.0145,0.0271,0.0482,0.0471,0.0602,0.064,0.0544,0.0541,0.0521,0.0513,0.0577,0.0576,0.0575,0.0574,0,-0.094,-0.0916,-0.093,-0.0881,-0.0872,-0.0876,-0.0801,-0.077,-0.065,-0.056,-0.052,-0.0284,-0.0061,0.0146,0.038,0.0497,0.0678,0.0745,0.0621,0.0643,0.0758,0.0747,0.0905,0.0908,0.0911,0.0913,0.0915,0,-0.0986,-0.1008,-0.0999,-0.1022,-0.1006,-0.0995,-0.0985,-0.0864,-0.0813,-0.0595,-0.0554,-0.0302,-0.0099,0.0284,0.0519,0.0774,0.0768,0.0839,0.0798,0.0777,0.0797,0.0782,0.0768,0.0731,0.0732,0.0732,0.0732,0,-0.107,-0.1068,-0.108,-0.1144,-0.1154,-0.1146,-0.1109,-0.1081,-0.0914,-0.0796,-0.0576,-0.0389,0.0007,0.0306,0.0646,0.0766,0.0795,0.0856,0.0881,0.0669,0.0627,0.0642,0.0631,0.0734,0.0734,0.0734,0.0734,0.0734,-0.1127,-0.117,-0.1201,-0.1255,-0.1275,-0.1272,-0.1258,-0.1177,-0.1072,-0.0853,-0.0639,-0.0338,-0.0016,0.0464,0.0688,0.0871,0.0885,0.0903,0.0897,0.0891,0.0856,0.0823,0.0959,0.096,0.0961,0.0962,0.0963,0,-0.1194,-0.1241,-0.1308,-0.1357,-0.1394,-0.1374,-0.1318,-0.1256,-0.113,-0.0893,-0.0647,-0.0287,0.0078,0.039,0.0689,0.0902,0.0839,0.0912,0.0783,0.078,0.0777,0.0732,0.0805,0.0805,0.0805,0.0806,0,0,-0.1232,-0.1318,-0.1355,-0.1445,-0.1474,-0.1474,-0.1435,-0.1308,-0.1128,-0.089,-0.0661,-0.0313,0.0089,0.0276,0.0527,0.0673,0.0661,0.0664,0.0764,0.0576,0.0571,0.0744,0.0668,0,0,0,0,0]}],[{"header":{"parameterUnit":"m.s-1","parameterCategory":2,"la1":30.2991,"la2":30.254,"lo1":-89.0895,"lo2":-89.0444,"dy":0.0017,"dx":0.0017,"nx":28,"ny":28,"refTime":"2024-04-28T21:00:00:Z","depth":"4","parameterNumber":2,"parameterNumberName":"U-component_of_CURRENTS"},"data":[0,0,0,0,0,0,0,0,0,0,0,0,0,0,0,0,0,0,0,0,0,0,0,0,0,0,0,0,0,0,0,0,0,0,0,0,0,0,0,0,0,0,0,0,0,0,0,0,0,0,0,0,0,0,0,0,0,0,-0.161,-0.1611,0,-0.1681,-0.1681,-0.1682,-0.1712,-0.1712,-0.1712,-0.1712,-0.1714,-0.1714,-0.1714,0,0,0,0,0,0,0,0,0,0,0,0,0,-0.1485,-0.1487,-0.161,-0.1611,-0.1612,-0.1681,-0.1681,-0.1682,-0.1712,-0.1712,-0.1712,-0.1712,-0.1714,-0.1714,-0.1714,0,0,0,0,0,0,0,0,0,0,0,0,0,-0.1543,-0.1488,-0.161,-0.1637,-0.1641,-0.168,-0.1681,-0.1682,-0.1712,-0.1712,-0.1712,-0.1712,-0.1714,-0.1714,-0.1714,-0.1709,0,0,-0.1714,-0.1714,0,0,0,0,0,0,0,0,-0.154,-0.1547,-0.1632,-0.1636,-0.164,-0.169,-0.1638,-0.1689,-0.1712,-0.1682,-0.1712,-0.1713,-0.1702,-0.1703,-0.1712,-0.1709,-0.1709,-0.1714,-0.1714,-0.1714,-0.1713,0,0,0,0,0,0,0,-0.1536,-0.1545,-0.1635,-0.1634,-0.1638,-0.1642,-0.165,-0.1648,-0.1686,-0.1684,-0.1687,-0.17,-0.1703,-0.1712,-0.1712,-0.1709,-0.1714,-0.1714,-0.1713,-0.1713,-0.1775,-0.1777,0,0,0,0,0,0,-0.1534,-0.1541,-0.1633,-0.1637,-0.1593,-0.1644,-0.1653,-0.1671,-0.1688,-0.1692,-0.17,-0.1701,-0.1712,-0.1712,-0.1712,-0.1782,-0.1714,-0.1713,-0.1713,-0.1774,-0.1776,-0.1777,0,0,0,0,0,0,-0.1531,-0.1542,-0.163,-0.1592,-0.1604,-0.1646,-0.1666,-0.1673,-0.1712,-0.1701,-0.1703,-0.1736,-0.1713,-0.1713,-0.1744,-0.1779,-0.1713,-0.1713,-0.1772,-0.1774,-0.1777,-0.1872,0,0,0,0,0,0,-0.1527,-0.154,-0.1565,-0.1593,-0.1607,-0.1672,-0.1667,-0.1674,-0.1719,-0.1722,-0.1731,-0.173,-0.1713,-0.1744,-0.1743,-0.1777,-0.1713,-0.1769,-0.1773,-0.1776,-0.1866,-0.1877,-0.1886,0,0,0,0,0,-0.1523,-0.1548,-0.1566,-0.1578,-0.1635,-0.1674,-0.1682,-0.1709,-0.172,-0.1743,-0.1757,-0.1732,-0.1764,-0.1746,-0.1744,-0.1779,-0.1768,-0.1772,-0.1775,-0.1862,-0.1875,-0.1886,0,0,0,0,0,0,-0.1503,-0.1555,-0.1574,-0.1615,-0.1653,-0.168,-0.171,-0.1728,-0.1759,-0.177,-0.1755,-0.1755,-0.1793,-0.1775,-0.1756,-0.1806,-0.1761,-0.1765,-0.1827,-0.1839,-0.1849,-0.1833,-0.1713,0,0,0,0,0,-0.1512,-0.1549,-0.1593,-0.1628,-0.1652,-0.1688,-0.1713,-0.1736,-0.1762,-0.1777,-0.1788,-0.1796,-0.1804,-0.1814,-0.1815,-0.1846,-0.1815,-0.1867,-0.1877,-0.1886,-0.1873,-0.1864,-0.1871,-0.179,-0.179,-0.179,0,0,-0.1512,-0.1549,-0.1569,-0.1628,-0.1661,-0.1703,-0.1704,-0.1755,-0.1792,-0.177,-0.1829,-0.1832,-0.1819,-0.1855,-0.187,-0.1849,-0.1899,-0.189,-0.1898,-0.188,-0.1869,-0.1876,-0.1883,-0.1793,-0.1792,-0.1792,0,0,-0.1525,-0.1569,-0.1605,-0.1645,-0.1709,-0.1733,-0.1756,-0.1808,-0.1836,-0.189,-0.1882,-0.1907,-0.1932,-0.1927,-0.1925,-0.1989,-0.195,-0.2001,-0.2042,-0.2036,-0.2042,-0.2047,-0.204,-0.2043,-0.2009,-0.2009,-0.2009,0,-0.1525,-0.158,-0.1619,-0.1668,-0.1708,-0.1751,-0.1797,-0.1832,-0.1889,-0.1912,-0.1921,-0.1963,-0.1959,-0.1983,-0.2011,-0.201,-0.2001,-0.2,-0.2048,-0.2052,-0.2055,-0.2046,-0.2049,-0.2014,-0.2014,-0.2013,-0.2013,0,-0.1557,-0.1618,-0.1645,-0.1722,-0.1765,-0.1817,-0.187,-0.192,-0.1963,-0.199,-0.2043,-0.2046,-0.2064,-0.2078,-0.2066,-0.2096,-0.2081,-0.206,-0.2015,-0.2069,-0.2057,-0.2058,-0.2021,-0.202,-0.2018,-0.2017,0,0,-0.1513,-0.1643,-0.1658,-0.1709,-0.1805,-0.1839,-0.1911,-0.1975,-0.2019,-0.2073,-0.2116,-0.2146,-0.2152,-0.2148,-0.2143,-0.2143,-0.2173,-0.2123,-0.212,-0.2111,-0.2166,-0.2049,-0.2038,-0.2168,-0.2168,-0.2168,-0.2156,0,-0.1531,-0.1629,-0.1691,-0.1783,-0.1836,-0.1907,-0.1967,-0.2031,-0.2082,-0.2133,-0.2147,-0.2184,-0.2177,-0.2196,-0.2199,-0.2175,-0.2176,-0.2178,-0.2117,-0.2115,-0.2,-0.2035,-0.2169,-0.2156,-0.2156,-0.2156,-0.2156,0,-0.1536,-0.1608,-0.1705,-0.1826,-0.1856,-0.1916,-0.2016,-0.2075,-0.2148,-0.2188,-0.2227,-0.2238,-0.2258,-0.2238,-0.2227,-0.2234,-0.2207,-0.2184,-0.2182,-0.2031,-0.1997,-0.2085,-0.2157,-0.2157,-0.2157,-0.2157,-0.2157,0,-0.1475,-0.1613,-0.1693,-0.1737,-0.1875,-0.1932,-0.2002,-0.2092,-0.2143,-0.2218,-0.2256,-0.2281,-0.23,-0.2274,-0.2247,-0.2243,-0.2218,-0.22,-0.2067,-0.2059,-0.2126,-0.212,-0.2176,-0.2176,-0.2176,-0.2176,-0.2176,0,-0.1456,-0.152,-0.1679,-0.1721,-0.1807,-0.1915,-0.1998,-0.207,-0.2166,-0.2208,-0.2277,-0.2292,-0.2311,-0.2304,-0.2262,-0.2167,-0.2232,-0.2065,-0.2042,-0.2171,-0.217,-0.2127,-0.2122,-0.2176,-0.2176,-0.2176,-0.2176,0,-0.1367,-0.148,-0.1571,-0.1731,-0.1782,-0.1838,-0.1989,-0.2043,-0.2153,-0.2207,-0.2234,-0.2312,-0.2292,-0.2292,-0.2248,-0.2174,-0.2099,-0.2049,-0.2199,-0.2186,-0.1943,-0.1943,-0.1886,-0.1882,-0.1878,-0.1875,-0.1872,0,-0.1329,-0.1374,-0.1546,-0.1599,-0.1677,-0.1786,-0.1858,-0.2006,-0.2053,-0.2187,-0.2189,-0.2235,-0.2255,-0.2108,-0.2122,-0.2037,-0.2007,-0.1975,-0.1939,-0.1927,-0.191,-0.1916,-0.1921,-0.1867,-0.1866,-0.1865,-0.1864,0,-0.1241,-0.1316,-0.139,-0.1501,-0.1594,-0.1676,-0.1786,-0.1811,-0.1963,-0.2087,-0.2083,-0.2069,-0.2048,-0.2005,-0.1966,-0.1902,-0.1997,-0.1935,-0.1942,-0.1908,-0.1902,-0.1891,-0.19,-0.1851,-0.1853,-0.1854,-0.1855,0,-0.1164,-0.1189,-0.1298,-0.1375,-0.1483,-0.1527,-0.161,-0.1676,-0.1746,-0.1908,-0.1894,-0.1944,-0.2023,-0.1933,-0.1889,-0.1828,-0.1784,-0.1725,-0.1742,-0.1756,-0.1716,-0.169,-0.1544,0,0,0,0,0,-0.1076,-0.1093,-0.1165,-0.1241,-0.1341,-0.1394,-0.1542,-0.1631,-0.178,-0.1733,-0.1812,-0.1782,-0.1738,-0.1767,-0.1665,-0.1801,-0.1778,-0.1678,-0.1717,-0.178,-0.1794,-0.1758,0,0,0,0,0,0,-0.1018,-0.1075,-0.1112,-0.1107,-0.1125,-0.1214,-0.1298,-0.1412,-0.1399,-0.1556,-0.1534,-0.166,-0.1628,-0.174,-0.1614,-0.1621,-0.161,-0.1723,-0.1718,-0.1771,-0.1785,-0.1797,-0.1764,0,0,0,0,0]},{"header":{"parameterUnit":"m.s-1","parameterCategory":2,"la1":30.2991,"la2":30.254,"lo1":-89.0895,"lo2":-89.0444,"dy":0.0017,"dx":0.0017,"nx":28,"ny":28,"refTime":"2024-04-28T21:00:00:Z","depth":"4","parameterNumber":3,"parameterNumberName":"V-component_of_CURRENTS"},"data":[0,0,0,0,0,0,0,0,0,0,0,0,0,0,0,0,0,0,0,0,0,0,0,0,0,0,0,0,0,0,0,0,0,0,0,0,0,0,0,0,0,0,0,0,0,0,0,0,0,0,0,0,0,0,0,0,0,0,-0.0273,-0.0272,0,-0.021,-0.0209,-0.0208,-0.0169,-0.0169,-0.0169,-0.0169,-0.0095,-0.0093,-0.0091,0,0,0,0,0,0,0,0,0,0,0,0,0,-0.0306,-0.0306,-0.0273,-0.0272,-0.0271,-0.021,-0.0209,-0.0208,-0.0169,-0.0169,-0.0169,-0.0169,-0.0096,-0.0094,-0.0091,0,0,0,0,0,0,0,0,0,0,0,0,0,-0.0272,-0.0306,-0.0273,-0.0245,-0.0242,-0.021,-0.0209,-0.0208,-0.0169,-0.0169,-0.0169,-0.0169,-0.0096,-0.0094,-0.0091,-0.0079,0,0,-0.0083,-0.0082,0,0,0,0,0,0,0,0,-0.0274,-0.0271,-0.025,-0.0247,-0.0243,-0.0198,-0.0194,-0.0164,-0.0169,-0.0196,-0.0169,-0.0169,-0.0129,-0.0123,-0.0112,-0.0076,-0.0072,-0.0082,-0.0081,-0.008,-0.0079,0,0,0,0,0,0,0,-0.0277,-0.0273,-0.0247,-0.0249,-0.0245,-0.0217,-0.0213,-0.0188,-0.0164,-0.0194,-0.0191,-0.0185,-0.0127,-0.0114,-0.011,-0.0071,-0.0083,-0.008,-0.0078,-0.0077,0.0012,0.0012,0,0,0,0,0,0,-0.0288,-0.0276,-0.0249,-0.0246,-0.0259,-0.0217,-0.0212,-0.0212,-0.0165,-0.0157,-0.0185,-0.0183,-0.0119,-0.0113,-0.0107,-0.0071,-0.008,-0.0077,-0.0076,0.0011,0.0012,0.0013,0,0,0,0,0,0,-0.029,-0.0287,-0.0252,-0.0259,-0.0253,-0.0217,-0.0218,-0.0211,-0.02,-0.0158,-0.0151,-0.0181,-0.0119,-0.0111,-0.0074,-0.0069,-0.0076,-0.0073,0.001,0.0011,0.0012,-0.0013,0,0,0,0,0,0,-0.0291,-0.0288,-0.0297,-0.026,-0.0253,-0.0238,-0.0218,-0.021,-0.0197,-0.0194,-0.0152,-0.0145,-0.0118,-0.0078,-0.0071,-0.0065,-0.0071,0.0009,0.0011,0.0012,-0.0013,-0.0013,-0.0012,0,0,0,0,0,-0.0292,-0.0307,-0.0298,-0.0295,-0.0265,-0.0238,-0.0232,-0.0205,-0.0197,-0.0194,-0.0156,-0.0146,-0.0065,-0.0075,-0.0068,-0.0061,0.0008,0.001,0.0012,-0.0013,-0.0013,-0.0012,0,0,0,0,0,0,-0.0331,-0.0303,-0.0292,-0.0299,-0.0273,-0.0232,-0.0231,-0.021,-0.0179,-0.0178,-0.0137,-0.0126,-0.0092,-0.0072,-0.0084,-0.0029,-0.0027,-0.0024,-0.0048,-0.0048,-0.0047,-0.0059,-0.0069,0,0,0,0,0,-0.0344,-0.0347,-0.031,-0.0318,-0.0306,-0.027,-0.0258,-0.0238,-0.0204,-0.019,-0.0156,-0.0118,-0.0079,-0.0061,-0.0027,0.0,0.0028,0.0011,0.0011,0.0011,0.0008,0.0064,0.0069,0.0018,0.0018,0.0018,0,0,-0.0365,-0.0348,-0.0352,-0.0326,-0.0305,-0.0291,-0.0262,-0.0248,-0.0232,-0.0187,-0.0158,-0.0118,-0.0071,-0.0035,-0.0018,-0.0018,0.004,0.0013,0.0012,0.001,0.0066,0.0071,0.0075,0.0019,0.0019,0.0019,0,0,-0.0402,-0.0389,-0.04,-0.0376,-0.0346,-0.0317,-0.0315,-0.0272,-0.0249,-0.0214,-0.0172,-0.0127,-0.0079,-0.0034,-0.0008,0.0013,0.0039,0.002,0.0012,0.0066,0.007,0.0075,0.0113,0.0121,0.0021,0.0021,0.0021,0,-0.0429,-0.0432,-0.04,-0.0394,-0.0379,-0.0331,-0.0329,-0.0296,-0.0245,-0.022,-0.0211,-0.0112,-0.0077,-0.0015,-0.0005,0.0013,0.0042,0.0004,0.0065,0.007,0.0075,0.0114,0.0122,0.002,0.002,0.002,0.002,0,-0.046,-0.0463,-0.0466,-0.0442,-0.0419,-0.0412,-0.0358,-0.0331,-0.0298,-0.0256,-0.0192,-0.013,-0.007,-0.0049,-0.0021,0.0035,0.0044,0.0058,0.006,0.0078,0.0118,0.0128,0.0018,0.0019,0.0019,0.0019,0,0,-0.0519,-0.0495,-0.0497,-0.0492,-0.0442,-0.0427,-0.0395,-0.0345,-0.032,-0.0258,-0.0215,-0.0137,-0.0096,-0.0063,-0.0013,0.0036,0.0095,0.0056,0.006,0.0086,0.0206,0.0184,0.0192,0.0119,0.0121,0.0122,0.0219,0,-0.0554,-0.0568,-0.0535,-0.0535,-0.0534,-0.0472,-0.0447,-0.0392,-0.0335,-0.0279,-0.0196,-0.014,-0.0102,-0.0072,-0.0013,0.0072,0.012,0.0067,0.0192,0.0196,0.0167,0.0203,0.0127,0.0226,0.0228,0.023,0.0231,0,-0.0588,-0.0593,-0.061,-0.058,-0.0572,-0.0562,-0.0502,-0.0471,-0.0376,-0.0329,-0.0248,-0.0178,-0.0082,-0.0062,0.009,0.0054,0.0123,0.0185,0.019,0.0183,0.0191,0.0208,0.0249,0.0248,0.0247,0.0245,0.0244,0,-0.0642,-0.0637,-0.0656,-0.0646,-0.0608,-0.0599,-0.0574,-0.0494,-0.0463,-0.036,-0.0321,-0.0194,-0.0128,-0.0019,0.0114,0.0104,0.0273,0.0277,0.0323,0.0321,0.0321,0.0316,0.0375,0.0374,0.0374,0.0374,0.0374,0,-0.0679,-0.0694,-0.069,-0.0697,-0.0716,-0.066,-0.0653,-0.0602,-0.0525,-0.0483,-0.0358,-0.0289,-0.0114,0.0009,0.0114,0.0252,0.0278,0.0327,0.035,0.0309,0.0301,0.0328,0.0322,0.0378,0.0377,0.0376,0.0375,0,-0.0725,-0.0726,-0.075,-0.074,-0.0745,-0.0757,-0.0727,-0.0708,-0.0627,-0.0567,-0.0536,-0.0351,-0.0184,-0.0017,0.0177,0.0248,0.038,0.0418,0.0358,0.0375,0.0389,0.0381,0.0477,0.0477,0.0477,0.0477,0.0477,0,-0.0743,-0.0766,-0.0799,-0.0831,-0.0833,-0.0845,-0.0852,-0.078,-0.0746,-0.0602,-0.057,-0.0389,-0.0259,0.0009,0.0176,0.0382,0.0401,0.0459,0.0427,0.039,0.0403,0.0394,0.0385,0.0478,0.0478,0.0478,0.0478,0,-0.0776,-0.0798,-0.082,-0.0899,-0.093,-0.0946,-0.094,-0.092,-0.0817,-0.0753,-0.058,-0.0409,-0.0215,0.0006,0.0172,0.0314,0.0418,0.0461,0.0461,0.0432,0.0392,0.0403,0.0394,0.0478,0.0478,0.0478,0.0478,0,-0.08,-0.0834,-0.0884,-0.0942,-0.0998,-0.1015,-0.1005,-0.0936,-0.0883,-0.0712,-0.0659,-0.0422,-0.0269,-0.0028,0.0123,0.0266,0.0291,0.0313,0.0322,0.0323,0.0245,0.0171,0.0215,0,0,0,0,0,-0.0809,-0.0853,-0.0921,-0.0977,-0.1035,-0.1059,-0.1043,-0.101,-0.0917,-0.081,-0.0725,-0.0538,-0.0256,-0.0111,0.0026,0.0095,0.029,0.0257,0.0313,0.048,0.048,0.0412,0,0,0,0,0,0,-0.0819,-0.0886,-0.092,-0.0992,-0.1038,-0.108,-0.1071,-0.1011,-0.0926,-0.0816,-0.0656,-0.054,-0.0262,-0.0344,0.0017,0.0067,0.0112,0.0403,0.0405,0.048,0.048,0.048,0.041,0,0,0,0,0]}]]